Location: Happy Hill
(32.4688°N, 97.2367°W)
Time: 22:23:42
(UTC+00:00)

Daily predictions for brighter satellites

Satellite Brightness Start Highest point End
(mag) Time Altitude Azimuth Time Altitude Azimuth Time Altitude Azimuth
Milstar 3 Cent rocket 3.6 12:01:50 16° WSW 12:05:28 35° SSW 12:12:50 10° SE
Meteor 2-17 Rocket 4.3 12:00:11 10° N 12:06:15 81° W 12:12:16 10° S
Cosmos 1933 3.3 12:06:49 10° NNW 12:10:41 57° W 12:14:32 10° S
ERS-2 1.6 12:08:34 10° NNE 12:11:29 77° ESE 12:14:23 10° S
Cosmos 1627 Rocket 4.5 12:05:56 10° N 12:12:19 78° W 12:18:36 10° S
SAR-Lupe-2 4.3 12:09:10 10° NNE 12:12:41 55° E 12:16:11 10° S
Cosmos 1862 3.3 12:09:14 10° SSW 12:12:57 52° W 12:16:43 10° N
Cosmos 2151 3.0 12:08:53 10° S 12:13:03 80° E 12:17:15 10° N
COSMO-SKYMED 1 2.7 12:08:59 10° S 12:13:11 52° W 12:17:26 10° NNW
Meteor 2-3 Rocket 4.2 12:08:13 10° SW 12:13:16 35° WNW 12:18:19 10° NNW
PSLV R/B 3.5 12:10:34 10° N 12:14:49 65° WNW 12:19:01 10° SSW
GENESIS II 4.0 12:18:30 10° SSW 12:22:19 82° WNW 12:26:11 10° NNE
USA 215 3.5 12:17:05 10° NNE 12:23:16 48° NW 12:29:28 10° WSW
SJ-7 4.5 12:22:34 10° NNE 12:26:41 84° ESE 12:30:45 10° S
BlueWalker 3 2.0 12:25:35 14° NW 12:28:45 61° SW 12:32:30 10° SSE
ATLAS 2A CENTAUR R/B 3.4 12:32:03 10° WSW 12:34:33 16° SSW 12:36:10 10° SSE
SMAP 3.5 12:32:40 10° NNE 12:37:19 68° E 12:41:56 10° S
Cosmos 1110 Rocket 4.0 12:32:45 10° NNW 12:38:04 76° WSW 12:43:19 10° S
Cosmos 1842 Rocket 3.9 12:34:25 10° N 12:38:51 73° E 12:43:17 10° SSE
BREEZE-M R/B 3.2 12:32:22 10° NW 12:39:11 88° SW 12:42:37 10° SE
Aureole 2 4.3 12:36:44 10° N 12:39:43 67° ENE 12:42:34 10° SSE
Cosmos 1437 Rocket 3.0 12:38:04 10° SSW 12:41:35 41° W 12:45:05 10° N
Cosmos 1782 4.2 12:39:28 10° NW 12:42:05 18° W 12:44:41 10° SW
H-2A R/B 3.6 12:40:36 10° NW 12:42:30 12° WNW 12:44:25 10° W
Helios 1B rocket 2.7 12:41:19 10° N 12:45:04 42° WNW 12:48:49 10° SW
CZ-4B R/B 4.1 12:43:47 10° NNE 12:47:50 79° ESE 12:52:01 10° S
DELTA 2 DEB (DPAF) 4.1 12:44:23 10° SSE 12:48:40 89° NE 12:52:58 10° NNW
Cosmos 1515 4.2 12:46:20 10° NNW 12:49:39 35° W 12:52:57 10° SSW
APEX 3.6 23:48:46 10° SW 23:51:52 45° WNW 23:54:41 10° N
Cosmos-2242 3.0 23:49:01 10° S 23:53:21 80° E 23:57:41 10° N
CZ-2D R/B 3.9 23:49:46 10° S 23:53:23 58° W 23:57:00 10° NNW
